Location: Peebles
(55.6412°N, 3.1714°W)
Time: 15:14:38
(UTC+01:00)

deb Agena D - Visible Passes

Search period start: 03 July 2022 00:00
Search period end: 13 July 2022 00:00
Orbit: 795 x 982 km, 99.8° (Epoch: 02 July)

Date Brightness Start Highest point End Pass type
(mag) Time Alt. Az. Time Alt. Az. Time Alt. Az.
03 Jul 7.9 00:10:00 10° N 00:14:48 34° NW 00:19:46 10° WSW visible
03 Jul 9.1 01:53:38 10° NNW 01:54:47 11° NW 01:55:55 10° NW visible
04 Jul 7.8 00:09:13 10° N 00:14:04 34° NW 00:19:06 10° WSW visible
04 Jul 9.1 01:52:46 10° NNW 01:54:04 11° NW 01:55:22 10° NW visible
05 Jul 7.8 00:08:28 10° N 00:13:21 35° WNW 00:18:24 10° WSW visible
05 Jul 9.1 01:51:53 10° NNW 01:53:21 11° NW 01:54:49 10° NW visible
06 Jul 7.8 00:07:42 10° N 00:12:37 36° WNW 00:17:44 10° WSW visible
06 Jul 9.1 01:51:02 10° NNW 01:52:39 11° NW 01:54:15 10° NW visible
07 Jul 7.8 00:06:56 10° N 00:11:54 36° WNW 00:17:03 10° WSW visible
07 Jul 9.1 01:50:12 10° NNW 01:51:55 11° NW 01:53:40 10° NW visible
08 Jul 7.7 00:06:11 10° N 00:11:11 37° WNW 00:16:23 10° WSW visible
08 Jul 9.0 01:49:22 10° NNW 01:51:13 12° NW 01:53:05 10° NW visible
09 Jul 7.7 00:05:25 10° N 00:10:27 37° WNW 00:15:42 10° WSW visible
09 Jul 9.0 01:48:32 10° NNW 01:50:30 12° NW 01:52:30 10° WNW visible
10 Jul 7.7 00:04:39 10° N 00:09:44 38° WNW 00:15:01 10° WSW visible
10 Jul 9.0 01:47:42 10° NNW 01:49:47 12° NW 01:51:53 10° WNW visible
11 Jul 7.7 00:03:53 10° N 00:09:00 39° WNW 00:14:19 10° SW visible
11 Jul 9.0 01:46:53 10° NNW 01:49:04 12° NW 01:51:17 10° WNW visible
12 Jul 7.7 00:03:08 10° N 00:08:17 39° WNW 00:13:38 10° SW visible
12 Jul 9.0 01:46:05 10° NNW 01:48:21 13° NW 01:50:40 10° WNW visible
